GEFSMW_con_maxscp_282.txt.gz
SCP
1 1 1 1 2 2 2 2 2 2 2 1 1 2 2 2 1 1 2 2 2 1 1 2 2 2 2 1 1 1 1 1 1 1 1 1 1 1 1 2 3 2 2
1 1 1 1 2 2 2 3 3 3 2 2 1 1 1 1 1 1 1 1 1 1 1 2 2 2 2 1 1 1 1 1 1 1 1 1 1 1 1 1 2 3 3
1 1 1 1 1 2 3 3 3 3 3 2 2 1 1 1 1 0 1 1 1 1 1 2 2 2 1 1 1 1 1 1 1 1 1 1 1 1 1 1 2 2 3
2 1 1 1 2 2 3 3 3 3 3 3 2 1 1 0 0 0 0 1 1 1 1 2 2 1 1 1 1 1 1 1 1 1 1 1 1 1 1 1 1 2 2
2 2 2 2 2 2 2 3 3 3 3 3 2 2 1 1 1 1 1 1 1 1 1 1 1 1 2 2 2 1 1 1 1 1 1 1 1 1 1 1 1 1 1
2 2 2 2 2 2 3 3 4 4 3 3 3 2 2 2 2 1 1 1 1 1 1 1 1 2 2 2 2 3 2 2 2 2 2 2 1 1 1 1 2 1 1
2 2 2 3 3 3 3 3 4 4 4 3 3 3 3 3 2 2 2 1 1 1 1 2 2 2 3 3 4 4 4 4 4 4 3 3 2 2 2 2 2 2 1
2 2 3 3 3 3 3 4 4 5 5 4 3 3 4 3 3 2 2 1 1 1 2 2 2 3 4 5 6 6 7 7 7 7 6 5 4 2 2 2 2 2 2
3 3 3 3 2 2 3 4 5 5 5 4 3 4 5 4 3 3 2 2 1 2 2 2 2 3 4 5 7 8 8 9 10 9 9 8 6 4 3 2 2 2 1
3 3 3 2 2 2 3 4 5 5 5 4 4 4 5 5 4 3 2 2 2 2 2 2 2 3 4 5 6 7 8 9 10 10 10 9 7 5 4 3 2 1 1
2 2 2 2 2 2 3 4 5 5 5 4 4 4 4 4 3 3 2 2 2 2 2 2 2 3 3 4 5 5 6 7 8 8 8 7 6 5 4 4 2 2 2
2 2 2 2 2 2 2 3 4 4 5 5 5 4 4 3 3 3 3 3 3 3 2 2 2 3 3 3 4 4 5 5 5 6 6 6 5 5 4 4 3 2 2
2 2 3 3 2 2 2 3 3 4 5 5 5 5 5 4 3 3 3 3 3 3 2 2 2 3 3 3 4 4 4 5 5 5 5 5 5 5 5 4 4 3 3
2 2 3 3 3 3 2 3 3 4 4 5 6 6 6 5 4 3 3 3 3 3 3 2 2 2 3 3 3 4 4 4 5 5 4 4 5 5 5 4 4 4 4
3 3 3 3 3 3 3 3 3 3 4 5 6 7 7 6 5 4 4 4 4 4 4 3 3 3 3 3 3 3 3 4 4 4 4 4 4 4 4 4 4 4 5
3 3 4 4 4 3 3 4 4 5 6 6 6 7 7 6 5 5 4 4 4 4 4 4 4 3 3 2 2 2 2 3 4 4 5 5 4 4 4 3 3 3 3
3 4 5 5 4 3 4 5 6 7 7 7 6 7 8 7 7 5 5 4 4 4 4 4 5 5 4 3 2 2 2 3 4 5 6 6 5 5 4 4 3 3 3
3 4 5 6 6 5 6 7 8 8 7 7 7 8 9 9 8 7 6 5 4 4 4 4 4 5 5 3 2 2 2 3 4 5 6 5 5 5 5 4 4 4 4
4 4 5 7 8 9 10 10 10 9 8 7 8 9 10 10 10 8 7 6 5 5 5 4 3 3 3 3 2 2 2 3 4 5 5 4 4 4 4 4 4 5 5
4 4 5 7 10 12 14 16 16 14 12 10 8 8 8 9 9 9 8 7 7 6 6 5 3 3 2 2 2 2 3 5 5 5 4 3 3 3 3 3 4 5 5
5 5 5 7 10 11 15 18 20 19 15 11 8 7 7 7 7 8 9 8 8 7 6 4 3 3 3 2 2 3 4 6 7 6 5 4 2 2 2 3 4 5 4
6 6 6 7 8 9 11 15 18 18 14 10 7 7 7 6 6 8 9 9 8 6 5 4 4 3 3 3 3 3 3 5 7 7 5 4 2 1 1 2 3 4 3
6 7 8 8 8 8 8 10 12 13 11 9 8 7 7 7 7 7 7 7 6 5 5 5 4 3 4 4 4 4 3 3 5 6 5 4 3 2 2 2 2 3 4
6 7 8 8 8 7 7 6 6 8 9 9 8 7 7 8 7 6 6 5 5 4 4 4 3 3 3 4 5 5 4 3 4 5 6 6 5 5 5 5 5 5 5
5 6 7 7 7 6 5 5 4 5 7 8 8 7 7 7 7 5 4 4 3 3 3 3 3 3 3 4 4 4 5 5 5 7 9 10 9 8 8 8 8 7 7
4 5 6 6 5 5 5 4 4 5 6 7 8 7 6 6 6 4 3 3 2 2 2 2 3 4 4 3 3 4 5 5 6 9 12 12 11 10 10 10 9 9 8

GEFSMW_con_maxscp_288.txt.gz
SCP
1 2 2 2 2 3 4 4 4 4 4 3 2 2 2 2 2 2 2 2 2 2 2 2 2 2 2 2 2 2 2 1 1 1 1 1 2 3 3 3 2 2 1
2 2 2 2 2 3 4 4 4 4 4 3 2 2 1 2 2 2 2 2 2 2 2 2 2 2 2 2 2 2 2 2 1 1 1 2 2 3 3 3 3 2 2
2 3 2 2 3 4 5 4 4 4 4 3 3 2 2 2 1 2 2 3 3 2 2 2 2 2 2 2 2 2 2 2 2 2 2 2 2 3 3 3 3 3 3
3 3 3 3 3 4 4 4 5 5 5 4 3 3 3 2 2 2 3 4 3 2 2 2 2 2 2 2 2 3 3 3 3 3 3 3 3 4 4 3 3 3 3
3 3 4 4 4 4 3 4 6 6 6 6 5 4 4 3 3 4 4 4 4 3 3 3 3 3 2 2 3 3 4 4 4 4 4 4 5 5 4 4 4 3 3
4 4 4 5 5 4 4 5 7 9 9 8 7 6 5 4 4 5 6 5 4 4 4 4 4 4 3 3 4 4 5 5 5 5 5 6 6 6 5 5 4 4 4
3 4 5 6 6 5 4 6 9 11 11 9 8 7 6 5 5 5 6 5 4 4 5 6 6 5 5 4 4 4 5 5 6 6 7 7 8 7 6 6 6 5 6
3 3 5 6 6 6 6 7 10 12 12 10 8 7 6 5 5 5 5 5 4 4 5 6 7 7 6 5 5 5 5 5 6 6 7 8 8 8 8 7 7 6 6
3 3 4 5 6 6 7 8 10 11 10 9 8 7 6 5 5 5 5 5 5 4 5 6 7 7 7 6 5 5 5 5 5 6 6 7 8 8 8 8 8 7 6
4 4 4 5 6 7 7 8 9 10 9 8 7 6 6 5 5 5 6 6 5 5 5 6 6 6 7 6 5 4 4 4 4 4 5 5 6 6 7 7 7 6 5
6 5 5 6 7 7 8 9 9 10 10 8 7 7 7 6 6 5 5 6 6 5 6 6 6 6 6 5 5 4 3 3 3 3 3 3 3 4 5 5 5 5 4
6 5 5 6 7 8 8 8 9 9 9 8 7 7 8 7 7 6 5 5 6 6 6 6 6 5 5 5 4 4 3 3 2 2 2 2 2 3 3 3 3 3 3
5 5 5 6 7 7 8 8 8 7 7 7 7 8 8 8 8 7 7 6 6 6 6 7 6 5 4 4 4 4 4 3 2 2 2 2 2 2 3 3 3 3 3
4 5 5 5 5 6 8 8 7 6 6 7 8 8 9 9 9 9 8 8 7 7 7 7 6 5 4 4 4 4 4 4 3 2 2 2 2 2 3 3 3 3 3
3 4 4 5 5 6 7 6 5 5 6 7 8 9 9 9 10 10 10 9 8 7 8 7 5 5 4 4 4 5 5 4 4 3 3 3 3 3 3 3 3 3 3
3 4 5 5 6 6 6 5 5 5 7 8 9 10 11 12 11 10 9 9 8 8 8 6 5 5 4 3 4 5 5 5 4 4 4 3 3 3 3 2 2 3 3
5 5 5 6 7 7 7 6 5 6 7 9 11 14 15 15 12 9 9 9 9 9 8 6 5 5 4 3 3 4 5 4 4 4 4 4 4 4 4 4 4 4 3
8 8 7 7 8 8 7 6 6 7 9 12 14 16 16 13 10 9 10 10 10 9 8 7 5 5 4 2 2 2 3 3 3 4 5 6 6 6 5 6 7 7 5
8 8 9 9 10 9 8 7 7 8 10 14 16 15 12 11 11 12 12 11 10 9 8 7 5 4 4 2 2 2 2 3 3 5 6 7 7 6 6 8 9 8 6
7 7 9 10 11 10 8 7 8 9 10 11 12 11 10 11 13 13 13 11 10 9 8 7 5 4 3 3 2 2 2 3 4 5 7 6 5 4 5 6 7 6 5
7 7 8 9 10 9 9 10 10 10 10 9 9 9 10 11 12 12 12 10 10 10 9 7 5 4 4 3 3 3 3 4 5 7 9 8 5 3 3 4 5 4 4
7 7 9 10 10 10 11 12 13 12 10 10 9 9 10 10 10 10 10 9 9 10 9 7 6 5 4 4 4 3 3 4 6 9 10 8 5 3 2 2 3 3 3
7 7 8 10 11 10 10 11 11 11 10 10 10 9 9 9 10 9 7 7 8 9 8 7 6 6 5 5 6 5 4 4 6 8 7 5 4 3 2 2 2 2 3
6 6 8 10 12 11 9 9 9 9 9 9 10 10 10 11 10 8 6 6 6 7 7 6 5 6 6 6 7 9 7 6 6 5 5 4 3 4 3 3 3 3 3
7 7 8 11 13 14 13 12 11 11 11 11 11 10 11 12 10 7 5 4 5 5 5 4 5 5 6 5 6 8 9 8 6 5 6 6 5 5 5 5 5 4 3
8 8 9 11 15 17 18 17 17 16 14 12 10 10 11 12 9 6 4 3 4 3 3 3 4 5 5 4 4 6 8 7 5 6 7 8 7 6 6 6 6 4 3

GEFSMW_con_maxscp_294.txt.gz
SCP
1 2 2 2 1 1 1 1 1 1 1 1 1 1 1 0 0 1 1 1 1 1 1 1 1 1 1 1 1 1 1 1 1 1 1 0 0 0 0 0 1 1 1
1 1 2 2 2 1 1 1 1 1 1 2 1 1 1 1 1 1 1 1 1 1 1 1 1 1 1 1 1 1 1 1 1 1 1 1 1 1 0 0 1 1 1
1 1 1 2 2 2 2 2 2 2 2 2 2 2 1 1 1 1 1 1 2 2 2 1 1 1 1 1 1 1 1 1 1 1 1 1 1 1 1 1 1 1 1
1 1 1 1 2 2 2 3 3 3 3 3 3 3 2 2 1 1 1 1 2 2 2 2 2 2 2 2 1 2 2 2 2 2 2 2 2 2 1 1 1 1 1
1 1 1 1 1 2 3 3 4 4 4 4 4 3 3 2 2 2 1 2 2 2 2 2 3 3 2 2 2 2 2 2 2 2 2 2 3 3 2 2 2 2 1
2 2 2 1 1 2 3 4 5 5 5 5 5 4 3 3 2 2 2 2 3 3 2 3 3 3 3 3 3 2 2 2 2 2 3 3 3 3 3 3 3 2 2
2 2 2 2 2 2 3 4 6 7 7 7 6 5 4 4 3 2 2 2 3 3 2 2 3 3 3 4 4 3 2 2 2 2 3 3 3 3 3 3 3 2 2
2 2 2 3 3 3 3 4 6 8 9 9 8 6 5 4 3 2 2 2 2 2 2 2 2 2 3 4 4 3 3 2 2 2 2 2 2 2 2 2 1 1 1
3 3 3 4 4 4 4 4 6 7 8 8 7 6 5 4 3 2 2 2 2 2 1 2 2 2 3 3 3 3 2 2 2 2 1 1 1 1 1 1 1 1 1
3 3 4 4 4 4 4 4 5 6 6 6 5 4 4 3 3 2 2 1 1 1 2 2 2 2 2 2 2 2 2 1 1 1 1 1 1 1 1 1 1 1 1
2 2 3 3 3 3 4 4 5 5 5 5 4 4 3 3 2 2 2 2 2 2 2 2 2 2 2 2 1 1 1 1 1 1 1 1 1 1 1 1 1 1 1
1 2 2 3 3 3 3 4 4 5 6 5 5 4 3 3 3 2 2 2 2 2 2 2 2 3 2 1 1 2 2 1 1 1 2 2 2 2 2 2 2 1 1
2 2 3 3 3 3 3 3 4 5 5 5 5 4 3 3 3 3 3 3 3 2 2 2 3 3 2 1 1 1 1 2 2 2 1 1 1 2 2 2 2 2 2
3 4 4 3 2 2 2 3 3 4 5 6 5 5 4 4 4 3 3 3 3 3 3 3 3 3 2 1 1 1 1 2 2 1 1 1 1 1 2 2 2 2 2
5 5 5 3 2 2 2 3 3 4 5 6 7 6 6 5 4 4 4 4 4 4 4 4 3 3 2 1 1 1 1 1 2 1 1 1 1 2 2 2 2 3 3
6 7 6 4 3 3 3 3 4 5 6 6 7 7 7 6 5 4 4 4 4 3 3 4 4 3 2 2 1 1 1 1 2 1 1 2 2 2 2 2 2 3 4
6 6 5 4 4 4 4 4 4 5 6 6 6 7 7 6 6 5 5 4 4 3 3 3 3 3 3 2 2 1 1 1 1 1 2 2 2 2 2 3 3 3 4
6 5 5 4 4 4 5 5 5 6 6 5 5 6 6 7 6 5 4 4 4 4 4 4 3 3 3 2 2 1 1 1 1 1 1 2 2 2 2 3 3 4 4
6 6 4 4 4 4 4 4 5 5 6 5 5 5 6 6 6 5 5 5 5 5 5 4 3 3 3 3 2 1 1 2 2 1 1 1 1 1 2 3 3 4 4
6 6 5 4 4 5 5 5 6 5 5 5 5 5 5 5 5 5 5 5 5 5 4 3 3 3 3 3 2 1 1 2 2 2 2 2 1 2 2 2 3 4 4
6 5 5 5 5 5 5 6 6 5 5 5 5 5 5 5 5 5 6 6 6 5 4 3 3 3 3 3 2 2 2 2 2 3 3 3 2 2 2 3 3 4 4
5 5 4 4 4 4 5 5 5 5 5 6 6 5 5 5 5 6 6 6 6 5 4 4 4 5 5 4 4 3 2 2 3 3 4 3 3 3 3 3 2 2 2
5 4 3 3 4 5 5 5 5 6 6 7 6 5 5 6 7 7 7 6 6 5 5 5 6 6 6 5 4 3 2 2 3 4 4 4 3 3 3 3 2 1 1
4 4 4 6 8 9 9 8 7 7 7 7 6 5 5 7 8 8 7 6 6 5 4 5 5 4 4 4 3 3 3 3 3 4 4 4 4 4 4 3 2 1 1
5 7 9 12 13 13 11 9 7 6 6 5 5 5 6 8 9 9 7 6 5 4 3 3 3 2 2 2 2 2 2 2 3 4 5 5 5 5 4 2 2 1 1
9 11 14 16 15 13 10 8 6 5 5 5 5 6 7 9 10 9 7 5 4 3 3 2 2 2 2 1 2 2 2 2 3 4 5 6 6 5 3 2 2 1 1

GEFSMW_con_maxscp_300.txt.gz
SCP
2 2 1 1 0 1 1 1 1 0 0 0 0 1 1 1 1 1 1 1 1 1 1 1 1 1 1 1 1 1 1 1 1 1 1 1 1 1 1 2 2 2 2
2 2 1 1 1 0 1 1 1 0 0 1 1 1 1 1 1 1 1 1 1 1 1 1 1 1 1 1 1 1 1 1 1 1 1 1 1 1 1 1 2 2 2
2 2 2 1 1 0 0 0 0 0 1 1 1 1 1 1 1 1 1 1 1 1 1 1 1 1 1 1 1 1 1 1 1 1 2 2 2 1 1 1 1 1 2
2 3 3 2 1 1 1 1 0 1 1 1 1 1 1 1 1 1 1 1 1 1 1 1 1 1 1 1 1 1 1 1 2 2 2 2 3 3 2 2 1 1 1
3 3 3 2 1 1 1 1 1 1 1 2 2 2 2 2 2 1 1 1 1 1 1 1 1 1 1 1 1 1 1 2 2 2 3 3 4 4 4 3 2 2 1
3 3 3 2 1 1 1 1 1 1 1 2 3 3 3 2 2 2 1 1 1 1 1 1 1 1 1 1 1 1 1 2 2 3 3 4 5 6 6 6 4 2 1
2 3 2 2 1 1 1 1 2 2 2 3 3 3 3 3 3 2 2 2 2 2 2 2 2 2 2 1 1 1 1 2 2 3 4 5 6 6 6 6 4 2 1
2 2 2 2 1 1 1 1 2 2 2 3 3 4 4 3 3 2 2 2 2 2 2 3 3 2 2 1 1 1 1 2 2 3 4 4 4 4 3 3 2 1 1
2 2 2 2 2 1 1 1 2 2 2 3 3 3 3 3 2 2 2 2 2 2 3 3 3 2 2 1 1 1 2 2 3 3 2 2 2 2 1 1 1 1 1
2 2 2 2 2 2 1 2 2 3 3 4 3 3 3 3 2 2 2 2 2 3 3 4 3 2 1 1 1 2 2 2 2 2 1 1 1 1 1 1 1 1 1
3 2 2 2 2 2 2 2 3 4 4 4 4 3 3 2 2 2 2 2 2 3 4 4 3 2 1 1 2 2 2 2 1 1 1 1 1 1 1 1 1 1 1
3 2 2 2 2 2 2 2 3 4 4 4 3 3 2 2 2 2 2 2 2 3 4 4 3 2 2 2 2 2 2 1 1 1 1 1 1 1 1 1 1 1 1
3 3 2 2 2 2 2 2 3 3 3 3 3 2 2 2 2 1 2 2 3 4 4 4 4 3 3 3 3 3 2 1 1 1 1 1 1 1 1 1 1 1 1
3 3 2 2 2 2 2 2 2 2 2 3 3 3 3 2 2 1 2 2 3 4 4 4 4 3 3 3 3 3 2 1 1 1 1 1 1 1 1 1 1 1 2
4 3 2 2 2 2 2 2 2 2 3 3 4 4 4 3 3 2 2 3 3 3 3 3 3 3 3 3 3 3 2 1 1 1 1 1 1 1 1 1 1 2 2
4 3 3 3 2 2 2 2 2 2 3 3 4 5 5 4 4 3 4 4 4 3 2 2 2 3 3 3 3 3 2 1 1 1 1 2 1 1 1 1 1 1 2
3 3 3 3 2 2 2 2 2 2 3 3 4 6 6 5 4 5 5 5 4 3 2 2 2 2 2 2 2 2 1 1 1 1 1 1 1 1 1 1 1 1 1
3 3 4 3 2 2 2 2 2 2 2 3 4 5 5 5 5 6 6 5 4 3 3 3 3 2 2 1 1 1 1 1 1 1 1 1 1 1 1 2 1 2 2
3 4 4 3 2 2 2 2 2 2 2 2 3 4 4 5 5 6 6 5 4 4 4 4 3 3 2 1 1 1 1 1 1 1 1 1 1 1 1 2 2 2 2
3 3 3 3 2 2 2 2 2 2 2 3 3 4 4 4 5 5 5 4 4 4 4 4 3 3 2 1 1 1 1 1 1 1 1 2 2 1 1 2 2 2 2
3 3 3 3 3 2 2 2 2 2 2 3 3 4 4 4 4 4 4 4 4 4 4 3 3 3 2 2 1 1 1 1 1 2 2 3 2 2 1 1 2 2 2
3 3 3 3 3 2 1 2 2 2 2 2 3 3 4 5 5 4 4 4 4 4 3 3 3 3 3 2 2 1 1 1 1 2 2 3 2 2 1 1 1 1 2
3 3 3 3 2 2 2 2 3 3 2 2 2 3 4 5 5 5 4 4 3 4 3 3 3 3 3 3 2 1 1 1 1 1 2 1 1 1 1 1 1 2 3
3 3 3 3 2 2 2 3 4 3 2 2 2 3 4 5 5 5 5 4 4 4 4 4 3 3 3 3 2 1 1 1 1 1 1 1 1 1 2 2 2 3 3
3 3 3 3 3 3 3 3 3 2 2 2 2 3 4 5 5 5 5 4 4 3 3 4 3 3 3 2 2 2 1 1 1 1 1 1 1 2 2 2 2 3 2
3 3 3 3 3 3 3 2 2 1 1 2 3 3 4 4 5 5 4 4 3 3 3 3 3 3 3 2 1 1 1 1 1 1 1 2 2 2 2 2 2 2 2

GEFSMW_con_maxscp_306.txt.gz
SCP
1 1 1 1 1 1 1 1 2 2 1 1 1 1 1 1 1 1 1 1 1 1 1 1 1 1 1 1 1 1 1 1 2 2 1 1 1 1 2 2 2 2 2
1 1 1 1 1 1 1 1 2 2 2 1 1 2 2 1 1 1 1 1 1 1 1 1 1 1 1 1 1 1 1 2 2 2 2 2 1 2 2 2 2 2 2
1 1 1 1 1 1 1 1 2 2 2 2 2 2 2 1 1 1 1 1 1 1 1 1 1 2 1 1 1 2 2 2 2 2 2 2 2 2 2 2 2 2 2
1 1 1 1 1 1 1 1 2 2 2 2 2 2 2 1 1 1 1 1 1 1 1 1 1 1 2 2 2 2 2 2 2 2 2 3 3 3 3 3 2 2 2
1 1 1 1 1 1 1 1 1 2 2 2 3 3 2 1 1 1 1 1 1 1 1 1 1 1 2 2 2 2 2 2 2 2 2 3 4 6 6 5 4 3 2
2 2 1 1 1 1 1 1 2 2 2 3 3 3 2 2 2 2 2 2 2 1 1 1 1 1 2 2 3 3 3 3 3 3 3 3 5 7 9 8 6 5 4
3 2 2 2 1 1 2 2 2 2 3 3 3 3 3 3 3 3 2 2 2 2 2 1 1 2 2 2 3 3 3 3 4 4 4 3 4 8 10 10 9 7 5
3 3 3 2 2 2 2 2 2 3 3 4 5 5 4 4 4 3 3 2 2 2 2 1 2 2 2 3 3 4 4 4 4 4 4 4 5 7 9 10 10 8 6
3 3 3 3 2 2 2 2 3 3 4 5 6 6 6 5 4 4 3 2 2 2 1 1 2 2 3 4 4 5 5 5 6 6 6 6 6 7 9 9 9 8 6
3 3 3 3 3 3 3 3 3 4 4 5 6 7 7 6 5 4 3 2 1 1 1 2 2 3 4 5 5 6 6 7 8 8 9 9 10 10 10 10 9 7 5
2 3 3 3 3 3 3 3 3 3 3 4 6 7 7 6 4 3 2 2 2 2 2 3 3 4 4 5 6 7 8 8 9 10 11 12 12 12 11 9 7 5 3
2 3 3 3 4 4 4 3 2 2 3 4 6 7 6 5 4 3 3 2 2 2 2 3 4 4 4 6 7 7 8 8 8 9 10 11 11 10 9 7 5 3 2
3 3 4 5 5 5 4 4 3 3 3 3 4 5 5 4 4 4 4 3 3 3 2 3 3 4 4 5 6 6 6 6 6 7 7 7 7 6 5 5 3 3 3
4 4 6 7 7 6 5 4 4 3 3 3 3 4 4 4 5 5 4 4 3 3 2 3 3 3 3 4 4 4 5 4 5 5 5 4 4 3 3 3 3 3 3
5 6 7 8 8 7 6 5 4 3 3 2 2 3 4 4 5 5 5 5 5 4 3 3 2 2 2 2 3 4 5 5 5 5 5 4 3 2 2 2 3 3 4
5 6 7 9 9 8 6 5 4 3 3 2 2 3 3 4 4 4 5 6 6 5 4 3 3 2 2 1 2 3 5 5 6 6 6 5 3 2 2 2 2 2 2
4 4 6 8 9 7 6 5 4 4 3 3 3 3 3 3 4 4 4 5 6 6 5 4 4 4 3 2 1 2 4 5 6 7 7 6 4 3 2 1 1 1 2
3 4 5 7 8 7 5 5 4 4 4 4 3 3 3 3 3 4 4 5 6 6 6 6 6 5 4 2 1 2 3 5 6 7 7 7 5 3 2 2 2 2 2
4 4 5 6 6 6 6 5 5 4 4 4 4 4 4 4 3 4 5 6 7 7 6 6 6 6 5 3 1 1 3 6 6 6 7 7 5 3 2 2 3 3 3
4 5 5 6 6 6 7 7 6 5 4 5 5 5 5 4 4 6 6 7 6 6 5 5 5 5 4 3 1 1 3 6 6 6 6 6 4 3 2 2 3 3 3
5 6 6 6 6 7 8 8 6 5 5 6 6 6 6 6 7 8 8 6 5 5 4 4 4 4 4 3 1 1 3 5 5 5 5 4 3 2 1 2 3 3 3
7 7 6 6 6 7 8 8 7 6 6 7 7 7 8 9 9 10 8 6 5 5 5 4 4 3 3 2 1 1 2 3 4 5 5 4 2 1 1 1 1 2 2
8 7 6 6 6 6 7 8 8 7 7 8 9 9 9 9 9 8 7 7 6 5 5 5 4 3 3 2 2 1 1 1 3 5 5 3 1 1 1 1 1 1 2
7 6 6 6 7 6 6 7 8 8 8 9 10 10 8 7 6 6 6 6 6 5 5 5 4 4 3 3 3 2 1 2 2 4 4 3 2 1 1 1 1 2 2
5 5 5 7 8 8 7 8 8 8 8 9 9 8 7 5 5 5 5 5 4 4 4 4 4 4 3 3 3 2 2 2 3 3 4 4 3 3 2 2 2 2 3
4 4 5 7 9 9 10 10 10 9 8 8 8 7 7 6 5 4 4 4 3 3 3 3 3 3 3 2 2 2 2 2 3 3 5 5 4 3 3 3 3 3 3

GEFSMW_con_maxscp_312.txt.gz
SCP
3 4 3 3 3 4 4 4 3 3 3 4 3 3 3 3 3 3 3 4 4 4 3 3 3 3 3 3 3 3 3 3 3 3 3 3 2 2 2 2 2 2 3
4 4 3 3 4 4 4 3 3 3 4 4 4 4 3 2 2 3 3 4 4 4 3 3 3 3 3 3 3 3 3 3 3 3 3 3 2 2 2 2 3 3 3
3 3 3 4 5 5 4 3 3 4 4 4 4 4 3 2 2 3 3 3 4 4 3 3 3 3 3 3 3 4 4 4 4 4 3 3 3 3 3 4 4 5 5
3 3 3 4 5 5 3 3 3 4 5 5 4 4 3 3 3 3 4 4 4 4 3 3 2 2 2 2 3 4 5 5 4 4 3 3 3 4 4 5 6 7 7
3 3 3 4 4 4 3 3 4 5 5 5 5 4 4 3 3 3 4 3 3 3 3 3 2 2 2 2 3 4 5 5 5 5 4 4 4 4 4 6 8 9 9
3 3 3 3 3 3 3 4 5 5 5 6 6 5 5 4 4 4 4 3 3 3 3 3 2 2 2 3 4 4 5 6 7 7 6 6 5 5 5 6 8 10 10
3 4 4 3 3 3 3 5 6 6 5 5 6 6 6 5 5 5 4 3 3 4 3 3 3 3 3 3 4 5 6 7 8 9 8 7 7 6 7 8 9 10 10
3 4 4 4 4 3 4 5 6 6 6 6 6 7 7 6 6 6 5 4 3 3 3 3 3 3 3 3 4 5 6 7 8 8 8 8 8 8 9 10 11 10 10
4 5 6 5 4 4 4 5 7 8 8 7 7 6 6 6 6 7 6 4 3 3 3 3 3 3 3 3 4 5 6 6 7 8 9 10 10 10 11 12 12 12 12
4 6 8 7 7 6 6 6 7 8 8 8 7 6 5 5 6 7 7 5 4 3 3 3 4 3 3 4 5 5 5 6 8 9 11 11 11 12 13 14 14 13 12
3 5 8 10 9 8 7 7 6 6 8 9 8 7 6 6 6 6 6 5 4 3 3 3 3 4 4 5 6 6 6 7 8 9 10 10 11 11 12 12 11 10 9
4 5 7 8 8 8 7 7 7 7 7 8 9 8 7 7 7 6 6 5 4 4 3 3 4 4 4 5 6 6 6 6 7 7 8 7 7 8 7 7 6 5 5
5 5 6 7 7 7 7 8 9 8 7 7 8 8 8 8 8 8 7 6 5 4 4 4 5 5 4 4 4 4 4 4 4 5 5 5 5 5 4 3 3 3 3
7 7 7 7 8 9 10 10 10 9 8 7 7 8 8 9 9 9 7 6 5 5 5 6 6 5 4 3 3 3 3 3 3 3 4 4 5 5 5 4 3 3 3
7 7 7 7 8 9 10 9 9 9 8 7 7 7 8 8 8 7 6 6 5 5 6 6 6 5 5 4 4 4 4 3 3 3 3 4 5 5 5 4 4 3 3
7 6 6 6 7 8 8 9 10 10 9 8 8 8 7 6 6 5 5 5 5 5 5 6 6 6 5 4 4 4 5 5 5 4 4 4 4 5 5 4 3 3 3
8 6 5 6 7 7 9 10 11 11 11 10 9 8 7 5 4 4 4 5 5 6 6 6 6 6 5 4 3 4 5 6 7 6 5 4 4 5 6 4 3 2 2
8 6 5 6 8 9 10 11 11 11 11 11 11 10 8 6 5 4 4 5 6 8 8 7 6 5 5 4 3 3 4 6 7 7 6 6 6 6 7 6 4 3 3
7 7 7 8 9 10 11 12 12 12 12 12 12 12 10 8 6 6 6 6 8 9 9 7 6 5 5 4 3 2 3 5 6 6 6 6 7 7 7 6 5 5 5
8 8 9 9 10 10 11 12 12 11 12 14 15 14 12 10 9 8 8 8 9 9 8 7 6 6 6 5 3 2 3 4 5 5 5 5 6 5 5 5 5 6 6
9 9 9 9 9 9 10 10 10 11 12 15 16 15 13 11 11 10 10 10 10 9 7 7 7 7 7 5 3 2 3 4 4 4 4 4 4 3 2 3 4 5 5
8 8 8 9 9 10 9 9 9 12 15 17 17 16 15 13 11 11 11 11 11 9 8 8 8 8 7 5 3 2 2 3 3 4 3 3 2 1 1 1 2 2 2
8 8 7 8 10 12 11 10 10 14 19 21 19 17 16 15 13 11 11 11 10 9 8 7 7 7 7 5 3 2 1 1 2 3 2 1 1 0 0 1 1 1 2
7 7 7 9 12 13 12 11 11 14 19 21 19 17 16 15 13 11 9 9 9 8 7 7 7 7 6 6 4 2 1 1 1 2 2 1 1 1 1 1 1 2 3
8 9 10 12 14 14 13 11 11 13 16 17 16 15 14 13 11 9 7 6 6 6 6 6 6 6 6 5 3 2 2 2 2 2 2 3 2 2 2 2 2 3 3
10 11 14 16 17 15 12 10 11 13 14 15 14 12 11 10 9 7 5 4 4 4 4 4 5 6 6 4 2 1 1 2 2 2 3 4 3 3 3 3 3 3 3

GEFSMW_con_maxscp_318.txt.gz
SCP
1 1 1 1 2 2 2 2 2 2 2 2 2 1 1 1 1 1 1 1 1 2 2 2 2 1 1 1 1 1 1 1 1 1 1 1 1 1 1 0 1 1 1
1 1 2 2 2 2 2 2 2 2 2 2 2 2 1 1 1 1 1 1 1 2 2 2 1 1 1 1 1 1 1 1 1 1 1 1 1 1 1 1 1 1 1
1 2 2 3 2 2 2 2 2 2 2 3 3 2 2 1 1 1 1 1 1 1 2 1 1 1 1 1 1 1 1 1 1 1 1 1 1 1 1 1 1 1 1
2 2 3 3 2 2 2 2 2 2 2 3 3 3 3 2 1 1 1 1 1 1 1 1 1 1 1 1 1 1 2 2 2 2 2 2 3 3 3 3 2 2 2
2 2 2 2 2 2 3 3 2 2 2 2 3 3 3 2 1 1 1 1 1 1 2 1 1 1 1 1 1 2 2 2 2 2 3 3 4 5 6 5 4 4 3
2 2 2 2 2 3 4 3 3 3 2 2 3 3 3 3 2 2 2 2 2 2 2 2 1 1 1 1 2 2 2 2 3 3 4 5 6 7 7 8 7 6 6
2 2 2 2 2 4 4 3 3 3 3 3 2 3 3 3 3 3 3 2 2 2 2 2 2 1 1 1 2 2 2 3 3 4 5 6 7 8 9 8 8 6 6
1 1 2 2 3 4 4 4 4 4 4 3 2 2 3 3 3 3 3 3 2 2 2 2 2 1 1 1 2 2 3 4 4 4 5 5 6 7 7 6 5 4 3
2 2 2 2 3 4 4 4 5 5 4 3 3 2 2 3 3 3 3 3 2 2 2 2 1 1 1 1 2 2 3 4 4 4 3 3 4 3 3 3 2 1 1
2 3 3 3 4 4 3 4 4 5 4 3 3 2 2 2 3 3 3 2 2 2 2 2 1 1 1 1 2 2 2 2 2 2 2 2 2 2 2 2 1 1 1
3 3 4 4 4 3 3 3 3 3 3 4 4 3 3 3 3 3 3 2 2 2 2 1 1 1 1 1 1 1 1 1 1 1 1 1 2 2 2 2 1 1 1
3 4 4 4 4 4 4 4 3 3 3 4 4 4 4 4 3 3 2 2 2 2 2 1 1 1 1 1 1 1 1 1 1 1 1 1 1 2 2 1 1 1 1
4 3 3 3 3 4 5 5 5 4 3 3 4 5 5 5 4 3 3 2 2 2 2 2 1 1 1 1 1 2 2 2 2 2 2 2 2 2 2 2 1 1 1
3 3 3 2 2 3 4 5 6 5 4 3 4 4 5 5 4 4 3 3 3 2 2 2 2 1 1 2 2 3 3 2 2 2 2 3 3 3 3 3 2 2 2
3 3 3 2 2 2 3 4 5 5 4 4 4 4 4 4 4 4 4 4 3 3 3 3 3 3 2 2 3 3 2 2 1 2 2 3 4 4 4 4 3 3 2
3 3 3 3 3 2 3 4 4 4 4 4 4 4 4 4 4 4 5 5 4 3 3 4 4 4 4 3 3 2 1 1 1 2 3 4 5 4 4 4 4 3 3
5 4 4 4 4 4 5 6 6 6 5 5 4 4 4 4 4 4 5 5 4 3 3 4 5 6 5 4 3 2 1 1 1 2 3 5 5 5 5 4 4 4 4
7 6 6 6 6 6 7 8 7 7 6 5 5 4 4 3 3 4 4 4 4 4 3 3 4 5 5 5 3 2 2 1 2 2 3 4 5 5 5 5 5 4 4
9 8 7 7 7 7 7 7 7 7 7 6 5 4 4 3 3 4 4 4 4 4 3 3 3 4 4 4 3 2 2 2 2 2 3 3 4 4 4 5 5 4 4
9 8 8 7 6 6 5 6 6 7 7 6 5 5 5 4 4 4 4 4 4 3 3 3 3 3 3 3 3 2 3 3 2 2 2 2 3 3 3 3 3 3 3
8 8 7 7 6 6 5 6 7 7 7 7 7 7 6 5 4 4 5 5 4 4 3 3 3 3 3 3 2 2 3 3 3 2 2 2 2 2 1 1 2 2 2
7 7 8 8 7 7 7 7 7 7 8 8 9 8 6 5 4 4 5 5 5 4 4 4 4 4 4 4 2 2 2 2 2 2 2 1 1 1 0 0 1 1 1
7 8 8 8 7 7 8 9 9 9 9 9 8 7 6 5 5 4 4 5 5 4 4 4 4 5 5 4 3 1 1 1 1 1 1 1 1 0 0 0 0 1 1
7 8 8 7 6 6 8 9 10 10 10 8 6 6 6 6 6 5 5 4 5 5 5 4 4 4 4 4 3 2 1 1 1 1 0 0 0 0 0 0 0 0 0
5 6 6 6 5 5 5 7 8 8 8 7 7 6 6 7 7 6 6 5 5 5 4 4 4 4 3 3 3 2 2 1 0 0 0 0 1 1 1 1 1 1 1
4 4 5 5 5 4 4 4 5 5 6 7 7 7 7 7 7 7 7 5 4 4 4 4 4 4 3 2 2 2 2 1 0 0 0 1 1 2 2 2 1 1 1

GEFSMW_con_maxscp_324.txt.gz
SCP
0 0 0 0 0 1 1 1 1 0 1 1 1 1 1 1 0 0 0 0 1 1 1 1 1 1 1 0 0 0 1 1 1 1 1 0 0 0 0 0 0 0 1
1 0 0 0 0 1 1 1 1 0 1 1 1 1 1 1 0 0 0 0 1 1 0 1 1 1 1 0 1 1 1 1 1 1 1 1 0 0 0 0 0 0 0
1 1 0 0 1 1 1 1 0 0 1 1 1 1 1 1 1 1 1 1 1 1 0 0 0 0 0 0 1 1 1 1 1 1 1 1 1 1 1 1 1 1 1
1 1 0 0 1 1 1 0 0 0 1 1 1 1 1 1 1 1 1 1 1 1 1 0 0 0 0 1 1 1 1 1 1 1 1 1 2 1 1 1 1 1 1
0 0 0 0 1 1 1 0 0 0 1 1 1 1 1 1 1 1 1 1 1 1 1 1 1 1 1 1 1 1 1 1 1 1 1 2 2 2 2 2 2 2 1
1 1 1 1 1 1 1 1 0 0 1 1 1 1 1 1 1 1 1 1 1 1 1 1 1 1 1 1 0 0 1 1 1 1 1 2 2 2 3 3 2 1 1
1 1 1 1 2 2 1 1 1 1 1 1 2 3 2 1 1 1 1 1 1 1 1 1 1 1 1 1 1 1 1 1 1 1 1 1 1 1 1 1 1 1 1
2 1 1 2 2 2 2 2 1 1 1 2 3 5 5 4 2 1 1 1 1 1 1 1 1 1 1 1 1 1 1 1 1 1 1 1 1 1 1 1 1 1 1
2 2 1 1 2 2 2 2 2 2 2 3 5 7 7 7 5 3 1 1 1 1 1 1 1 1 1 1 1 1 1 1 1 1 1 1 1 1 1 1 1 1 1
2 2 1 1 2 2 2 2 2 2 3 5 6 7 6 6 6 5 2 1 1 1 1 1 1 1 1 1 1 1 1 0 0 0 1 1 1 1 1 1 1 1 1
2 2 1 1 1 2 2 2 2 3 4 5 5 4 3 3 5 5 3 1 1 1 1 1 1 1 1 1 1 1 1 0 0 0 0 1 1 1 1 1 1 1 1
1 1 1 1 1 2 2 2 3 3 4 3 3 2 1 1 2 3 3 2 2 2 2 2 2 2 1 1 1 1 1 1 1 1 0 0 1 1 1 1 1 1 1
1 1 1 1 1 2 2 2 2 3 2 2 2 1 1 1 2 2 2 2 2 2 2 2 2 2 2 2 2 1 2 1 1 1 1 1 1 1 1 1 1 1 1
1 1 1 1 1 1 1 2 2 2 2 2 2 2 2 2 2 3 3 3 3 2 3 3 3 3 3 2 2 2 2 2 2 2 2 1 1 1 1 2 2 2 2
1 1 1 2 1 1 1 1 1 2 3 3 3 3 3 3 4 4 4 3 3 3 3 3 3 3 3 3 2 3 3 3 3 3 2 2 2 2 2 2 2 2 2
1 1 2 2 2 2 2 2 2 3 3 4 3 3 3 3 3 4 3 3 2 2 2 2 3 3 2 2 2 2 3 3 3 3 3 3 2 2 2 2 2 2 2
2 3 3 3 3 3 3 3 3 3 4 4 3 3 3 3 2 2 2 2 2 2 2 2 2 2 2 2 1 1 2 2 3 3 2 2 2 2 2 2 2 2 2
4 5 5 5 4 4 4 4 4 4 4 4 3 3 2 2 2 2 2 2 2 2 2 2 2 2 2 1 1 1 1 2 2 2 2 2 2 2 2 2 2 2 2
5 6 6 7 5 4 5 6 6 5 5 4 3 3 3 2 2 2 2 2 2 2 2 2 2 2 2 1 1 1 1 2 2 2 2 2 2 2 2 2 2 2 2
6 6 6 6 5 4 6 7 6 5 5 4 4 4 4 3 3 2 2 2 2 2 2 2 2 2 2 1 1 1 2 2 2 2 3 2 1 1 1 1 1 2 2
5 5 5 4 3 4 5 5 4 3 3 4 5 5 5 4 4 3 3 3 3 2 2 2 2 2 2 1 1 1 1 1 2 2 2 2 1 0 0 0 1 1 1
4 4 4 3 2 2 2 2 1 1 2 4 5 5 5 4 4 4 5 4 4 3 3 3 2 2 1 1 1 1 1 1 1 2 2 1 1 0 0 0 0 0 0
2 3 3 2 2 2 2 2 2 2 3 4 5 6 5 5 4 5 5 5 4 4 3 3 2 1 1 1 1 1 1 1 1 1 1 1 0 0 0 0 0 0 0
3 3 2 3 3 4 5 5 4 3 4 4 5 5 5 5 5 4 4 4 4 4 4 3 2 1 1 2 2 1 1 1 1 1 1 0 0 0 0 0 0 0 0
5 5 5 5 6 6 7 7 5 5 4 4 4 4 5 5 5 5 4 3 3 3 3 3 3 2 2 2 2 1 1 1 1 1 1 1 1 1 1 1 1 1 1
7 7 7 8 9 8 8 7 6 5 5 4 4 4 4 4 5 4 4 3 2 2 3 3 4 3 2 2 2 1 1 1 1 1 1 1 1 1 1 1 1 1 1

GEFSMW_con_maxscp_330.txt.gz
SCP
1 1 1 2 3 2 2 2 2 1 1 1 1 1 1 1 1 1 1 1 2 2 1 1 1 1 1 1 1 1 1 1 1 1 1 1 1 1 1 1 1 1 1
1 1 1 2 2 2 2 2 2 1 1 1 1 1 1 1 1 1 1 1 2 2 1 1 1 1 1 1 1 1 1 1 1 1 1 1 1 1 1 1 1 1 1
1 1 1 1 1 1 2 2 2 1 1 1 1 1 1 1 1 1 1 1 2 2 1 1 1 1 1 1 1 1 1 1 1 1 1 1 1 1 1 2 2 2 2
1 1 1 1 1 1 2 2 2 1 1 1 1 1 1 1 1 1 1 1 1 1 1 1 1 1 1 1 1 1 1 1 1 1 1 2 2 2 2 2 2 2 2
1 1 1 2 2 2 2 2 2 2 1 1 2 2 1 1 1 1 1 1 1 1 1 1 1 1 1 1 1 1 1 1 1 2 2 2 2 2 2 2 1 1 1
0 1 1 1 2 2 2 3 3 3 2 2 2 2 2 2 1 1 1 2 2 2 1 1 1 2 1 1 1 1 1 2 2 3 2 2 2 2 1 1 1 1 1
0 1 1 1 1 2 2 3 3 3 3 2 2 2 3 3 2 1 1 2 2 1 1 1 1 2 2 2 2 2 2 3 3 3 2 2 2 1 1 1 1 1 1
1 1 1 1 1 2 2 3 4 4 3 3 3 3 4 3 2 2 2 1 1 1 1 1 1 2 2 2 2 2 3 3 3 2 2 2 2 2 1 1 1 1 1
1 1 2 2 1 2 2 4 4 4 3 3 4 4 4 3 3 2 2 2 1 1 1 2 2 2 3 3 3 3 3 3 3 2 2 2 2 2 1 1 1 1 1
2 2 2 2 2 3 3 3 4 4 4 3 3 3 3 3 3 3 3 2 2 2 2 2 3 3 3 3 3 3 3 3 3 3 2 2 2 2 2 1 1 1 1
4 4 3 3 3 3 3 3 4 4 4 3 3 2 2 3 3 3 3 3 3 3 3 3 4 3 3 3 3 3 3 3 3 3 2 2 2 2 2 2 2 1 2
5 4 3 3 3 4 4 4 4 4 4 3 2 2 2 3 3 3 3 3 3 3 4 4 4 4 4 4 4 4 4 4 3 3 3 3 2 2 2 2 2 2 2
5 4 2 3 4 5 5 5 5 4 4 3 3 3 3 3 3 3 3 3 4 4 4 4 4 4 4 5 5 5 6 5 5 4 4 4 3 3 3 3 3 3 2
5 4 2 3 5 6 6 5 5 4 4 4 4 3 3 3 3 3 3 4 4 4 4 4 4 4 4 5 5 6 6 7 6 6 5 5 4 4 4 4 4 3 3
5 4 3 3 5 6 7 6 5 5 5 5 4 4 3 3 2 3 3 4 4 3 4 4 4 4 4 5 5 6 6 7 7 7 6 5 5 4 4 4 4 3 3
5 4 4 4 5 7 8 7 6 6 6 5 5 4 3 3 3 3 3 3 4 4 5 5 5 5 4 4 4 4 5 6 6 6 6 5 5 5 4 3 3 3 3
5 5 5 5 6 7 8 8 7 6 6 6 5 5 5 4 4 4 4 4 4 5 5 6 6 5 4 3 3 3 3 4 4 4 4 4 5 5 5 4 3 3 3
5 5 5 6 6 6 6 6 7 7 6 6 6 7 7 6 6 5 4 5 5 5 5 6 5 4 3 2 2 2 2 3 3 3 3 3 4 5 6 6 5 5 5
4 4 4 5 5 5 5 6 7 7 5 5 6 7 7 7 6 5 6 7 7 6 5 4 3 3 2 1 1 1 2 3 3 3 3 3 4 5 5 6 7 7 7
3 3 4 4 5 5 6 7 7 6 4 3 4 5 5 6 6 6 8 10 9 7 6 4 3 3 3 2 2 2 3 3 3 3 3 3 3 3 4 5 6 6 6
3 3 3 4 6 7 7 6 5 4 3 3 3 3 3 4 5 7 10 12 11 9 7 5 4 3 4 4 3 2 3 3 3 3 4 3 2 2 2 3 4 4 4
3 3 4 5 7 8 8 6 4 4 3 3 3 3 3 4 5 7 9 10 10 9 8 7 6 6 6 6 4 3 2 2 3 3 3 3 1 1 0 1 1 1 2
3 3 4 5 7 9 8 6 4 4 4 3 3 3 4 5 6 7 7 7 8 8 8 8 9 9 9 8 5 2 1 1 2 2 2 2 1 0 0 0 0 0 1
3 4 4 5 7 8 8 7 6 5 6 6 5 4 4 6 7 7 6 7 7 8 9 10 11 12 11 8 5 3 2 1 1 2 2 1 1 1 1 1 1 1 1
3 3 4 5 7 8 9 10 10 10 10 10 8 6 5 6 7 7 6 7 7 8 8 9 11 12 10 6 3 3 2 2 2 2 2 2 2 2 2 2 2 2 1
2 3 4 5 7 9 10 12 13 14 14 12 10 8 6 6 7 7 6 6 6 6 6 8 9 9 7 4 2 2 2 2 2 3 3 3 4 3 3 2 2 2 2